Location: Czu?�w
(50.1404°N, 18.9919°E)
Time: 03:14:45
(UTC+00:00)

USA 306 - Pass Details

Date: 27 October 2020
Orbit: 569 x 577 km, 54.0° (Epoch: 22 November)

Event Time Altitude Azimuth Distance (km) Brightness Sun altitude
Rises 17:53:05 0° 295° (WNW) 2,787 7.7 -23.6°
Reaches altitude 10° 17:55:22 10° 290° (WNW) 1,884 6.6 -24.0°
Maximum altitude 17:59:33 54° 214° (SW) 703 3.4 -24.7°
Enters shadow 17:59:35 54° 212° (SSW) 703 3.4 -24.7°
